When you browse on this site, cookies collect data to enhance your experience and personalize the content and advertising you see.
Visit our Privacy Policy to learn more. By continuing to use the site, you agree to this use of cookies and data.
  • In Romania
  • List of Countries
  • For 7 days
  • Water Temperature
  • Satellite Maps
  • Weather Map
  • Weather Widgets
  • user-avatar
    Login

    Hourly Weather Craiova

    Today, 18 February, Monday

    Time Temperature Precipitation Wind Pressure Humidity
    00:00 +6°C° 0 mm 2 mps 759 mmHg 83%
    01:00 +5°C° 0 mm 2 mps 759 mmHg 84%
    02:00 +5°C° 0 mm 2 mps 758 mmHg 84%
    03:00 +5°C° 0 mm 2 mps 758 mmHg 84%
    04:00 +5°C° 0 mm 2 mps 758 mmHg 85%
    05:00 +4°C° 0 mm 2 mps 758 mmHg 85%
    06:00 +5°C° 0 mm 1 mps 758 mmHg 84%
    07:00 +5°C° 0 mm 1 mps 758 mmHg 84%
    08:00 +5°C° 0 mm 1 mps 758 mmHg 81%
    09:00 +7°C° 0 mm 1 mps 758 mmHg 73%
    10:00 +9°C° 0 mm 1 mps 758 mmHg 65%
    11:00 +10°C° 0 mm 1 mps 758 mmHg 57%
    12:00 +11°C° 0 mm 1 mps 758 mmHg 53%
    13:00 +13°C° 0 mm 1 mps 758 mmHg 49%
    14:00 +15°C° 0 mm 1 mps 757 mmHg 43%
    15:00 +13°C° 0 mm 0 mps 757 mmHg 45%
    16:00 +13°C° 0 mm 0 mps 757 mmHg 47%
    17:00 +13°C° 0 mm 0 mps 757 mmHg 49%
    18:00 +12°C° 0 mm 0 mps 757 mmHg 52%
    19:00 +11°C° 0 mm 0 mps 757 mmHg 56%
    20:00 +9°C° 0 mm 0 mps 757 mmHg 60%
    21:00 +9°C° 0 mm 0 mps 757 mmHg 62%
    22:00 +8°C° 0 mm 0 mps 757 mmHg 64%
    23:00 +9°C° 0 mm 1 mps 757 mmHg 66%

    Tomorrow, 19 February, Tuesday

    Time Temperature Precipitation Wind Pressure Humidity
    00:00 +8°C° 0 mm 1 mps 757 mmHg 69%
    01:00 +8°C° 0 mm 1 mps 757 mmHg 72%
    02:00 +7°C° 0 mm 1 mps 758 mmHg 74%
    03:00 +7°C° 0 mm 1 mps 757 mmHg 77%
    04:00 +5°C° 0 mm 2 mps 757 mmHg 80%
    05:00 +5°C° 0 mm 2 mps 757 mmHg 82%
    06:00 +5°C° 0 mm 2 mps 757 mmHg 83%
    07:00 +5°C° 0 mm 2 mps 757 mmHg 85%
    08:00 +4°C° 0 mm 2 mps 757 mmHg 86%
    09:00 +6°C° 0 mm 2 mps 757 mmHg 78%
    10:00 +8°C° 0 mm 2 mps 757 mmHg 71%
    11:00 +9°C° 0 mm 2 mps 757 mmHg 64%
    12:00 +12°C° 0 mm 1 mps 756 mmHg 59%
    13:00 +13°C° 0 mm 1 mps 756 mmHg 55%
    14:00 +14°C° 0 mm 1 mps 755 mmHg 50%
    15:00 +14°C° 0 mm 1 mps 755 mmHg 51%
    16:00 +13°C° 0 mm 0 mps 755 mmHg 52%
    17:00 +13°C° 0 mm 0 mps 755 mmHg 53%
    18:00 +12°C° 0 mm 0 mps 755 mmHg 56%
    19:00 +10°C° 0 mm 0 mps 755 mmHg 60%
    20:00 +9°C° 0 mm 0 mps 755 mmHg 63%
    21:00 +9°C° 0 mm 0 mps 755 mmHg 65%
    22:00 +8°C° 0 mm 0 mps 755 mmHg 66%
    23:00 +9°C° 0 mm 1 mps 755 mmHg 68%

    Day after tomorrow, 20 February, Wednesday

    Time Temperature Precipitation Wind Pressure Humidity
    00:00 +9°C° 0 mm 1 mps 755 mmHg 71%
    01:00 +8°C° 0 mm 1 mps 755 mmHg 73%
    02:00 +8°C° 0 mm 1 mps 755 mmHg 76%
    03:00 +7°C° 0 mm 1 mps 755 mmHg 79%
    04:00 +6°C° 0 mm 2 mps 755 mmHg 82%
    05:00 +5°C° 0 mm 2 mps 754 mmHg 85%
    06:00 +5°C° 0 mm 2 mps 754 mmHg 84%
    07:00 +5°C° 0 mm 2 mps 755 mmHg 84%
    08:00 +4°C° 0 mm 3 mps 755 mmHg 83%
    09:00 +6°C° 0 mm 4 mps 755 mmHg 74%
    10:00 +8°C° 0 mm 5 mps 755 mmHg 65%
    11:00 +10°C° 0 mm 6 mps 755 mmHg 56%
    12:00 +11°C° 0 mm 6 mps 755 mmHg 52%
    13:00 +13°C° 0 mm 6 mps 754 mmHg 48%
    14:00 +14°C° 0 mm 6 mps 754 mmHg 44%
    15:00 +14°C° 0 mm 6 mps 754 mmHg 45%
    16:00 +14°C° 0 mm 6 mps 755 mmHg 47%
    17:00 +14°C° 0 mm 5 mps 755 mmHg 48%
    18:00 +13°C° 0 mm 6 mps 755 mmHg 53%
    19:00 +10°C° 0 mm 6 mps 756 mmHg 57%
    20:00 +9°C° 0 mm 6 mps 756 mmHg 62%
    21:00 +8°C° 0 mm 5 mps 757 mmHg 64%
    22:00 +7°C° 0 mm 4 mps 757 mmHg 66%
    23:00 +6°C° 0 mm 4 mps 757 mmHg 68%

    21 February, Thursday

    Time Temperature Precipitation Wind Pressure Humidity
    00:00 +7°C° 0 mm 3 mps 758 mmHg 69%
    01:00 +5°C° 0 mm 3 mps 758 mmHg 69%
    02:00 +5°C° 0 mm 3 mps 758 mmHg 70%
    03:00 +5°C° 0 mm 2 mps 758 mmHg 70%
    04:00 +5°C° 0 mm 2 mps 758 mmHg 71%
    05:00 +4°C° 0 mm 2 mps 758 mmHg 71%
    06:00 +4°C° 0 mm 2 mps 759 mmHg 72%
    07:00 +4°C° 0 mm 2 mps 759 mmHg 72%
    08:00 +4°C° 0 mm 2 mps 759 mmHg 73%
    09:00 +5°C° 0 mm 2 mps 759 mmHg 67%
    10:00 +7°C° 0 mm 2 mps 759 mmHg 60%
    11:00 +9°C° 0 mm 2 mps 760 mmHg 54%
    12:00 +10°C° 0 mm 2 mps 759 mmHg 50%
    13:00 +12°C° 0 mm 2 mps 759 mmHg 45%
    14:00 +12°C° 0 mm 3 mps 759 mmHg 41%
    15:00 +12°C° 0 mm 3 mps 758 mmHg 42%
    16:00 +12°C° 0 mm 3 mps 758 mmHg 43%
    17:00 +12°C° 0 mm 3 mps 758 mmHg 44%
    18:00 +11°C° 0 mm 4 mps 758 mmHg 49%
    19:00 +10°C° 0 mm 4 mps 758 mmHg 54%
    20:00 +8°C° 0 mm 5 mps 758 mmHg 59%
    21:00 +8°C° 0 mm 4 mps 758 mmHg 61%
    22:00 +7°C° 0 mm 4 mps 758 mmHg 63%
    23:00 +7°C° 0 mm 4 mps 758 mmHg 65%

    22 February, Friday

    Time Temperature Precipitation Wind Pressure Humidity
    00:00 +7°C° 0 mm 5 mps 757 mmHg 68%
    01:00 +7°C° 0 mm 5 mps 757 mmHg 70%
    02:00 +7°C° 0 mm 6 mps 757 mmHg 73%
    03:00 +7°C° 0.1 mm 6 mps 756 mmHg 73%
    04:00 +6°C° 0.1 mm 7 mps 755 mmHg 74%
    05:00 +6°C° 0.1 mm 8 mps 755 mmHg 75%
    06:00 +6°C° 0 mm 7 mps 755 mmHg 75%
    07:00 +6°C° 0 mm 7 mps 754 mmHg 75%
    08:00 +7°C° 0 mm 6 mps 754 mmHg 75%
    09:00 +8°C° 0 mm 6 mps 754 mmHg 71%
    10:00 +9°C° 0 mm 6 mps 754 mmHg 66%
    11:00 +10°C° 0 mm 6 mps 754 mmHg 62%
    12:00 +11°C° 0 mm 6 mps 754 mmHg 55%
    13:00 +13°C° 0 mm 6 mps 754 mmHg 48%
    14:00 +14°C° 0 mm 5 mps 753 mmHg 41%
    15:00 +14°C° 0 mm 5 mps 753 mmHg 42%
    16:00 +13°C° 0 mm 4 mps 754 mmHg 43%
    17:00 +13°C° 0 mm 4 mps 754 mmHg 45%
    18:00 +10°C° 0.3 mm 5 mps 755 mmHg 52%
    19:00 +8°C° 0.3 mm 6 mps 756 mmHg 60%
    20:00 +5°C° 0.3 mm 7 mps 757 mmHg 68%
    21:00 +3°C° 0.4 mm 7 mps 758 mmHg 73%
    22:00 0°C° 0.4 mm 7 mps 760 mmHg 78%
    23:00 -2°C° 0.4 mm 7 mps 761 mmHg 83%

    23 February, Saturday

    Time Temperature Precipitation Wind Pressure Humidity
    00:00 -3°C° 0.3 mm 6 mps 762 mmHg 76%
    01:00 -2°C° 0.3 mm 5 mps 763 mmHg 69%
    02:00 -2°C° 0.3 mm 4 mps 764 mmHg 62%
    03:00 -3°C° 0 mm 4 mps 765 mmHg 63%
    04:00 -2°C° 0 mm 3 mps 766 mmHg 64%
    05:00 -3°C° 0 mm 2 mps 766 mmHg 65%
    06:00 -3°C° 0 mm 2 mps 766 mmHg 65%
    07:00 -3°C° 0 mm 2 mps 767 mmHg 65%
    08:00 -3°C° 0 mm 2 mps 767 mmHg 65%
    09:00 -3°C° 0 mm 2 mps 767 mmHg 63%
    10:00 -2°C° 0 mm 2 mps 767 mmHg 60%
    11:00 -2°C° 0 mm 2 mps 768 mmHg 58%
    12:00 -1°C° 0 mm 2 mps 767 mmHg 55%
    13:00 -1°C° 0 mm 2 mps 767 mmHg 53%
    14:00 +1°C° 0 mm 2 mps 767 mmHg 50%
    15:00 +1°C° 0 mm 2 mps 766 mmHg 49%
    16:00 +1°C° 0 mm 2 mps 766 mmHg 48%
    17:00 +1°C° 0 mm 2 mps 765 mmHg 48%
    18:00 +1°C° 0 mm 2 mps 765 mmHg 52%
    19:00 -1°C° 0 mm 2 mps 765 mmHg 57%
    20:00 -1°C° 0 mm 2 mps 765 mmHg 61%
    21:00 -1°C° 0 mm 2 mps 765 mmHg 62%
    22:00 0°C° 0 mm 1 mps 765 mmHg 63%
    23:00 0°C° 0 mm 1 mps 765 mmHg 64%
    Show more